[[{"header":{"parameterUnit":"m.s-1","parameterCategory":1,"la1":30.2991,"la2":30.254,"lo1":-89.0895,"lo2":-89.0444,"dy":0.0017,"dx":0.0017,"nx":28,"ny":28,"refTime":"2025-12-10T09:00:00:Z","depth":0,"parameterNumber":2,"parameterNumberName":"U-component_of_WINDS"},"data":[0,0,0,0,0,0,0,0,0,0,0,0,0,0,0,0,0,0,0,0,0,0,0,0,0,0,0,0,0,0,0,0,0,0,0,0,0,0,0,0,0,0,0,0,0,0,0,0,0,0,0,0,0,0,0,0,0,0,1.2715,1.2715,0,1.2704,1.2704,1.2704,1.2648,1.2647,1.2646,1.2644,1.2632,1.2633,1.2634,0,0,0,0,0,0,0,0,0,0,0,0,0,1.2688,1.2689,1.2715,1.2715,1.2715,1.2704,1.2704,1.2704,1.2649,1.2647,1.2645,1.2644,1.2632,1.2633,1.2634,0,0,0,0,0,0,0,0,0,0,0,0,0,1.2691,1.2689,1.2715,1.2686,1.2684,1.2704,1.2704,1.2704,1.2649,1.2647,1.2645,1.2643,1.2632,1.2633,1.2634,1.2682,0,0,1.2638,1.2639,0,0,0,0,0,0,0,0,1.2691,1.2692,1.2691,1.2688,1.2685,1.2676,1.269,1.2696,1.2649,1.2662,1.2644,1.2642,1.2648,1.2648,1.265,1.2681,1.268,1.2638,1.2639,1.264,1.264,0,0,0,0,0,0,0,1.2691,1.2692,1.2711,1.2691,1.2688,1.2673,1.2672,1.2691,1.2666,1.2661,1.2657,1.2656,1.2646,1.2649,1.2649,1.268,1.2638,1.264,1.264,1.2641,1.2747,1.2749,0,0,0,0,0,0,1.2695,1.2692,1.2711,1.271,1.2683,1.2675,1.2673,1.2681,1.2666,1.2662,1.2658,1.2654,1.2648,1.2648,1.2649,1.2701,1.264,1.2641,1.2642,1.2745,1.2747,1.2749,0,0,0,0,0,0,1.2694,1.2697,1.2712,1.27,1.2701,1.2678,1.2687,1.2681,1.2684,1.2664,1.2659,1.2665,1.2646,1.2647,1.2673,1.27,1.2642,1.2643,1.2742,1.2745,1.2748,1.2807,0,0,0,0,0,0,1.2694,1.2697,1.2715,1.2701,1.2702,1.2737,1.2688,1.2683,1.2686,1.2681,1.2669,1.2665,1.2645,1.2672,1.2675,1.2701,1.2644,1.274,1.2744,1.2747,1.2803,1.2812,1.282,0,0,0,0,0,1.2693,1.2733,1.2717,1.2719,1.2724,1.2739,1.2739,1.2714,1.2689,1.2706,1.2693,1.2666,1.2697,1.2675,1.2678,1.2705,1.2738,1.2743,1.2747,1.2799,1.281,1.282,0,0,0,0,0,0,1.2751,1.2731,1.2712,1.2749,1.2746,1.2729,1.2751,1.2727,1.2732,1.2726,1.2696,1.2693,1.2724,1.2717,1.2693,1.2748,1.2713,1.2718,1.2751,1.2762,1.277,1.277,1.2645,0,0,0,0,0,1.2768,1.2782,1.2763,1.2797,1.2797,1.2774,1.278,1.2761,1.2756,1.2755,1.2744,1.274,1.2749,1.2755,1.2762,1.2802,1.2798,1.2822,1.2831,1.2838,1.2842,1.286,1.287,1.2764,1.2764,1.2764,0,0,1.2804,1.2794,1.2805,1.2809,1.2804,1.2818,1.2773,1.2791,1.28,1.2757,1.2781,1.2773,1.2767,1.2799,1.2813,1.2795,1.287,1.2843,1.2849,1.285,1.2866,1.2876,1.2885,1.2767,1.2767,1.2766,0,0,1.2874,1.287,1.2896,1.2892,1.2886,1.287,1.2877,1.2864,1.2856,1.2879,1.2847,1.2858,1.2875,1.2871,1.2871,1.294,1.2914,1.2943,1.2986,1.3005,1.3013,1.302,1.3042,1.3051,1.2948,1.2948,1.2948,0,1.2919,1.2939,1.2913,1.2931,1.2933,1.2895,1.2921,1.2919,1.2915,1.2917,1.2896,1.2915,1.2908,1.2938,1.2955,1.2957,1.2962,1.2943,1.3014,1.3021,1.3027,1.3048,1.3056,1.2951,1.2951,1.2951,1.295,0,1.2993,1.3007,1.3029,1.3026,1.303,1.3053,1.3029,1.3037,1.3018,1.3004,1.3027,1.3018,1.3022,1.3028,1.301,1.3055,1.3044,1.3019,1.2982,1.3041,1.306,1.3068,1.2956,1.2955,1.2954,1.2953,0,0,1.3099,1.308,1.3088,1.3085,1.3075,1.3085,1.3106,1.3109,1.3115,1.3114,1.3129,1.3143,1.312,1.312,1.3102,1.3118,1.317,1.3091,1.309,1.3104,1.3216,1.3233,1.3242,1.3153,1.3155,1.3156,1.3216,0,1.3164,1.3197,1.3174,1.321,1.3222,1.3186,1.3203,1.3198,1.3186,1.3194,1.3181,1.319,1.316,1.316,1.3174,1.316,1.3191,1.3156,1.3165,1.3166,1.3165,1.3253,1.3271,1.3327,1.3223,1.3224,1.3225,0,1.3245,1.3246,1.3284,1.3269,1.3273,1.3289,1.3289,1.3298,1.3291,1.3281,1.3281,1.3258,1.3275,1.3241,1.3264,1.324,1.3243,1.3237,1.3238,1.3236,1.3197,1.3251,1.3345,1.3353,1.3237,1.3236,1.3235,0,1.3315,1.3327,1.335,1.3349,1.3334,1.3345,1.3339,1.3331,1.3334,1.3334,1.3335,1.3338,1.3339,1.3341,1.3319,1.3296,1.3344,1.3308,1.3334,1.3335,1.3344,1.3344,1.3438,1.335,1.335,1.335,1.335,0,1.3389,1.3413,1.3381,1.3395,1.342,1.3393,1.3419,1.3409,1.3401,1.3412,1.3382,1.3393,1.3364,1.3371,1.3354,1.3374,1.3376,1.3367,1.3362,1.3368,1.3369,1.3368,1.3362,1.3352,1.3352,1.3351,1.3351,0,1.3471,1.3451,1.3474,1.3457,1.3453,1.3472,1.3457,1.3469,1.3455,1.3469,1.3471,1.3449,1.3456,1.3434,1.3439,1.3427,1.3456,1.3445,1.3458,1.3453,1.348,1.3477,1.3575,1.3586,1.3494,1.3495,1.3496,0,1.3519,1.3536,1.3521,1.3525,1.3521,1.353,1.3532,1.3506,1.351,1.3503,1.3515,1.352,1.3522,1.3535,1.3519,1.3522,1.3509,1.3544,1.351,1.3515,1.3507,1.3505,1.3506,1.355,1.3551,1.3552,1.3553,0,1.3604,1.3593,1.3598,1.3598,1.3602,1.3602,1.3599,1.3605,1.3577,1.3583,1.3589,1.3591,1.3595,1.3599,1.3598,1.3591,1.3567,1.3564,1.357,1.3576,1.3581,1.3576,1.3474,1.3561,1.3561,1.356,1.356,1.3559,1.3668,1.3681,1.3671,1.3677,1.3673,1.3671,1.368,1.3667,1.3672,1.3673,1.3657,1.3667,1.3659,1.3655,1.365,1.3657,1.3641,1.365,1.3652,1.3654,1.3657,1.3582,1.3657,1.3657,1.3656,1.3656,1.3656,0,1.3749,1.3742,1.3747,1.3744,1.3748,1.3726,1.3722,1.3726,1.3735,1.3729,1.3732,1.3739,1.3743,1.3727,1.3728,1.3737,1.3725,1.3738,1.3735,1.3734,1.3672,1.3666,1.3746,1.3746,1.3746,1.3746,1.3746,1.3746,1.3792,1.3811,1.3799,1.3816,1.3807,1.3816,1.3815,1.3813,1.3808,1.3817,1.382,1.381,1.3799,1.38,1.3802,1.3797,1.3798,1.3814,1.3805,1.3747,1.3738,1.373,1.3724,1.3815,1.3815,1.3865,1.3866,1.3866]},{"header":{"parameterUnit":"m.s-1","parameterCategory":1,"la1":30.2991,"la2":30.254,"lo1":-89.0895,"lo2":-89.0444,"dy":0.0017,"dx":0.0017,"nx":28,"ny":28,"refTime":"2025-12-10T09:00:00:Z","depth":0,"parameterNumber":3,"parameterNumberName":"V-component_of_WINDS"},"data":[0,0,0,0,0,0,0,0,0,0,0,0,0,0,0,0,0,0,0,0,0,0,0,0,0,0,0,0,0,0,0,0,0,0,0,0,0,0,0,0,0,0,0,0,0,0,0,0,0,0,0,0,0,0,0,0,0,0,3.7255,3.7258,0,3.752,3.7523,3.7526,3.7536,3.7533,3.753,3.7527,3.779,3.78,3.7809,0,0,0,0,0,0,0,0,0,0,0,0,0,3.6749,3.6758,3.7255,3.7258,3.7262,3.7519,3.7523,3.7527,3.7537,3.7533,3.7529,3.7525,3.7787,3.7798,3.781,0,0,0,0,0,0,0,0,0,0,0,0,0,3.6987,3.6761,3.7254,3.7298,3.7304,3.7519,3.7523,3.7528,3.7537,3.7533,3.7528,3.7523,3.7783,3.7797,3.7812,3.7998,0,0,3.7857,3.7864,0,0,0,0,0,0,0,0,3.6973,3.7005,3.7288,3.7295,3.7303,3.749,3.7441,3.7685,3.7539,3.7449,3.7527,3.7521,3.7693,3.7715,3.7775,3.8011,3.8022,3.7859,3.7868,3.7874,3.7878,0,0,0,0,0,0,0,3.6957,3.6994,3.7359,3.7292,3.7301,3.7301,3.733,3.7487,3.7594,3.7456,3.7457,3.7489,3.7696,3.7761,3.7781,3.8026,3.7858,3.7872,3.7881,3.7887,3.8425,3.843,0,0,0,0,0,0,3.6933,3.698,3.7351,3.7367,3.7123,3.7314,3.7346,3.7435,3.7592,3.7612,3.7493,3.7489,3.7738,3.7764,3.7791,3.8019,3.7874,3.7888,3.7897,3.842,3.8426,3.8432,0,0,0,0,0,0,3.6922,3.6966,3.734,3.7174,3.7222,3.7328,3.7427,3.7442,3.7507,3.762,3.7638,3.754,3.7735,3.777,3.7947,3.8028,3.7895,3.7908,3.8413,3.8422,3.8429,3.8477,0,0,0,0,0,0,3.6907,3.6962,3.7036,3.7176,3.7231,3.7495,3.7432,3.7451,3.7534,3.753,3.7669,3.7687,3.7734,3.7924,3.7962,3.8046,3.792,3.8407,3.8417,3.8427,3.8468,3.8485,3.85,0,0,0,0,0,3.6889,3.7038,3.704,3.7085,3.7326,3.75,3.7531,3.7584,3.754,3.7614,3.7686,3.7683,3.8013,3.7943,3.7984,3.8075,3.8402,3.8414,3.8426,3.8461,3.8482,3.85,0,0,0,0,0,0,3.6902,3.7057,3.7061,3.726,3.7367,3.7501,3.7597,3.7604,3.7724,3.7716,3.7774,3.7805,3.7981,3.8045,3.7964,3.8262,3.8202,3.8223,3.8214,3.8235,3.825,3.8231,3.7932,0,0,0,0,0,3.6929,3.706,3.7186,3.7349,3.7403,3.749,3.7568,3.7599,3.7712,3.7756,3.7842,3.7948,3.8076,3.8159,3.8282,3.8477,3.8506,3.8559,3.8575,3.8587,3.8605,3.8711,3.8736,3.8472,3.8472,3.8471,0,0,3.6984,3.7084,3.7163,3.7354,3.7441,3.7572,3.7528,3.7669,3.7767,3.7777,3.795,3.8016,3.8138,3.8325,3.8411,3.8384,3.8684,3.8603,3.8612,3.8623,3.8726,3.8751,3.8773,3.848,3.8478,3.8477,0,0,3.7152,3.7242,3.7387,3.7475,3.7608,3.7665,3.7699,3.7833,3.7878,3.8053,3.8063,3.8177,3.8396,3.8483,3.8556,3.8754,3.8755,3.8792,3.8875,3.8978,3.8999,3.9017,3.9087,3.9112,3.8809,3.8809,3.8809,0,3.7204,3.7405,3.746,3.7602,3.7685,3.7701,3.7847,3.7929,3.8094,3.8149,3.8116,3.8391,3.8475,3.8681,3.8729,3.8788,3.8827,3.8778,3.8992,3.9011,3.9029,3.9097,3.9123,3.8813,3.8813,3.8812,3.8812,0,3.7461,3.76,3.7701,3.7863,3.7956,3.8099,3.8173,3.826,3.8283,3.8342,3.8518,3.8619,3.8763,3.8814,3.8837,3.9023,3.9002,3.898,3.8921,3.9057,3.9122,3.9148,3.8818,3.8817,3.8816,3.8815,0,0,3.7647,3.7837,3.7873,3.7946,3.8092,3.8199,3.834,3.8484,3.8557,3.8669,3.8788,3.8972,3.8953,3.9035,3.9067,3.9157,3.9307,3.9124,3.9127,3.9154,3.9517,3.9533,3.9563,3.9307,3.9312,3.9316,3.9507,0,3.7831,3.8088,3.8141,3.8362,3.8489,3.8506,3.8629,3.873,3.8789,3.8903,3.8966,3.9096,3.906,3.911,3.92,3.9269,3.938,3.9256,3.9417,3.9422,3.9387,3.9596,3.9615,3.979,3.9532,3.9536,3.954,0,3.8082,3.8202,3.8437,3.8565,3.862,3.8731,3.8865,3.8975,3.9089,3.9125,3.9216,3.9238,3.9382,3.9315,3.9514,3.9429,3.9497,3.954,3.9548,3.9566,3.949,3.962,3.9847,3.9873,3.958,3.9577,3.9574,0,3.8194,3.8414,3.8583,3.8644,3.8798,3.8875,3.8942,3.9052,3.9134,3.9249,3.9303,3.9433,3.9504,3.9603,3.9658,3.9604,3.9853,3.979,3.9885,3.9883,3.9937,3.9933,4.0179,3.998,3.998,3.9979,3.9978,0,3.8395,3.8537,3.8635,3.8739,3.8898,3.8955,3.911,3.9176,3.9272,3.9387,3.9407,3.9513,3.9579,3.9694,3.9737,3.9895,3.9926,3.9958,3.9968,3.9957,3.9953,4.0003,3.9992,3.9986,3.9985,3.9983,3.9982,0,3.8548,3.862,3.8804,3.8935,3.897,3.9082,3.9192,3.9291,3.9349,3.9493,3.953,3.962,3.9756,3.982,3.9988,4.0017,4.0196,4.0197,4.0158,4.0162,4.0253,4.0244,4.054,4.0582,4.0355,4.0357,4.0358,0,3.8672,3.8783,3.8925,3.9004,3.9074,3.9201,3.9285,3.9344,3.943,3.9567,3.965,3.9787,3.99,4.0116,4.0194,4.0322,4.0326,4.0421,4.0346,4.0331,4.0328,4.0321,4.0332,4.0435,4.0437,4.0439,4.0441,0,3.8885,3.8915,3.9037,3.9171,3.9271,3.9379,3.9485,3.9548,3.9623,3.9718,3.9859,3.9946,4.0118,4.0253,4.0386,4.0451,4.0458,4.0463,4.0492,4.0483,4.0456,4.0472,4.0196,4.0457,4.0455,4.0454,4.0453,4.0453,3.9028,3.9127,3.9242,3.9377,3.9463,3.956,3.9661,3.9731,3.985,3.9997,4.0022,4.0171,4.0279,4.0459,4.0528,4.0644,4.0621,4.0663,4.0674,4.0683,4.0688,4.0437,4.0668,4.0667,4.0667,4.0667,4.0666,0,3.9242,3.9317,3.944,3.9589,3.9694,3.9692,3.9808,3.9896,4.0028,4.0129,4.024,4.04,4.0531,4.0619,4.0751,4.0826,4.0832,4.0858,4.0854,4.0868,4.0701,4.0663,4.0851,4.0851,4.0851,4.0851,4.0851,4.0851,3.9366,3.9533,3.9575,3.9783,3.9856,4.0005,4.0071,4.016,4.0241,4.042,4.053,4.0587,4.0682,4.0821,4.094,4.0962,4.1009,4.1036,4.1058,4.09,4.088,4.0862,4.0827,4.1046,4.1046,4.1216,4.1218,4.1219]}]]